Orbital Elements at Epoch 2459200.5 (2020-Dec-17.0) TDB
Reference: JPL 22 (heliocentric ecliptic J2000)
Element | Value | Uncertainty (1-sigma) | Units |
e | .1297914866420872 | 4.2232e-08 | |
a | 2.329673179278548 | 9.4624e-09 | au |
q | 2.027301433949788 | 1.0026e-07 | au |
i | 5.465657683968734 | 4.6868e-06 | deg |
node | 180.4668090274519 | 3.9107e-05 | deg |
peri | 334.949937186629 | 4.1986e-05 | deg |
M | 336.3472136438368 | 1.4657e-05 | deg |
tp | 2459285.833731082174 (2021-Mar-12.33373108) | 5.2965e-05 | TDB |
period | 1298.795952705081 3.56 | 7.913e-06 2.166e-08 | d yr |
n | .2771797981432004 | 1.6887e-09 | deg/d |
Q | 2.632044924607308 | 1.0691e-08 | au |
|
| | Orbit Determination Parameters
Additional Information
|